EW5029 Weather Reports


Display with metric or nautical units.
time (UTC)temp
F
wind
direction
speed
MPH
gust
MPH
rain 1hr
in
rain 24hr
in
rain mn
in
humidity
%
barometer
mb
20260510151503 57 46 3.0 12.0 0.00 0.00 0.00 67 1014.0
20260510151002 58 275 5.0 12.0 0.00 0.00 0.00 65 1014.1
20260510150503 59 5 5.0 11.0 0.00 0.00 0.00 65 1014.2
20260510150001 59 58 3.0 10.0 0.00 0.00 0.00 66 1014.2
20260510145559 58 348 3.0 9.0 0.00 0.00 0.00 67 1014.2
20260510145059 58 341 3.0 10.0 0.00 0.00 0.00 67 1014.4
20260510144559 58 15 3.0 10.0 0.00 0.00 0.00 66 1014.4
20260510144059 58 46 3.0 12.0 0.00 0.00 0.00 67 1014.4
20260510143557 58 63 3.0 12.0 0.00 0.00 0.00 66 1014.5
20260510143109 58 49 2.0 12.0 0.00 0.00 0.00 67 1014.5
20260510142558 58 11 3.0 12.0 0.00 0.00 0.00 66 1014.5
20260510142057 59 350 4.0 9.0 0.00 0.00 0.00 66 1014.4
20260510141601 59 70 4.0 10.0 0.00 0.00 0.00 66 1014.4
20260510141056 60 360 4.0 10.0 0.00 0.00 0.00 64 1014.4
20260510140658 60 77 3.0 9.0 0.00 0.00 0.00 64 1014.5
20260510140055 60 48 2.0 9.0 0.00 0.00 0.00 64 1014.4
20260510135557 60 329 3.0 9.0 0.00 0.00 0.00 65 1014.5
20260510135054 59 315 1.0 11.0 0.00 0.00 0.00 65 1014.5
20260510134558 60 38 4.0 10.0 0.00 0.00 0.00 64 1014.6
20260510134056 60 277 3.0 14.0 0.00 0.00 0.00 64 1014.6
20260510133551 60 27 3.0 14.0 0.00 0.00 0.00 63 1014.6
20260510133051 60 38 6.0 12.0 0.00 0.00 0.00 62 1014.7
20260510132553 60 280 3.0 8.0 0.00 0.00 0.00 64 1014.7
20260510132050 60 72 3.0 10.0 0.00 0.00 0.00 63 1014.9
20260510131552 61 306 2.0 7.0 0.00 0.00 0.00 62 1014.9
20260510131049 61 306 2.0 11.0 0.00 0.00 0.00 62 1014.9
20260510130548 61 263 3.0 12.0 0.00 0.00 0.00 61 1015.0
20260510130048 60 286 3.0 12.0 0.00 0.00 0.00 63 1015.0
20260510125550 60 94 4.0 11.0 0.00 0.00 0.00 61 1015.1
20260510125048 60 78 3.0 9.0 0.00 0.00 0.00 61 1015.1
20260510124550 60 267 3.0 11.0 0.00 0.00 0.00 61 1015.1
20260510124046 61 271 4.0 17.0 0.00 0.00 0.00 61 1015.1
20260510123546 61 32 4.0 11.0 0.00 0.00 0.00 61 1015.2
20260510123046 61 74 4.0 11.0 0.00 0.00 0.00 60 1015.1
20260510122545 61 288 2.0 10.0 0.00 0.00 0.00 58 1015.3
20260510122044 61 27 4.0 11.0 0.00 0.00 0.00 60 1015.2
20260510121544 61 32 5.0 11.0 0.00 0.00 0.00 60 1015.3
20260510121046 61 310 3.0 12.0 0.00 0.00 0.00 61 1015.4
20260510120541 61 344 4.0 14.0 0.00 0.00 0.00 58 1015.5
20260510120041 61 334 5.0 14.0 0.00 0.00 0.00 60 1015.5
20260510115541 61 69 2.0 11.0 0.00 0.00 0.00 61 1015.6
20260510115040 61 265 3.0 11.0 0.00 0.00 0.00 60 1015.6
20260510114540 61 325 3.0 11.0 0.00 0.00 0.00 60 1015.6
20260510114038 61 220 1.0 10.0 0.00 0.00 0.00 64 1015.6
20260510113538 60 65 3.0 11.0 0.00 0.00 0.00 62 1015.5
20260510113037 60 282 3.0 11.0 0.00 0.00 0.00 62 1015.7
20260510112537 60 348 4.0 10.0 0.00 0.00 0.00 62 1015.8
20260510112037 61 294 2.0 8.0 0.00 0.00 0.00 63 1015.8
20260510111541 61 346 3.0 10.0 0.00 0.00 0.00 63 1015.9
20260510111033 60 34 3.0 10.0 0.00 0.00 0.00 63 1016.0
20260510110532 60 346 5.0 10.0 0.00 0.00 0.00 62 1016.0
20260510110037 60 57 4.0 9.0 0.00 0.00 0.00 62 1016.0
20260510105531 60 73 3.0 9.0 0.00 0.00 0.00 64 1016.0
20260510105030 60 333 2.0 8.0 0.00 0.00 0.00 65 1016.0
20260510104533 59 328 3.0 10.0 0.00 0.00 0.00 66 1016.2
20260510104029 60 46 4.0 10.0 0.00 0.00 0.00 66 1016.2
20260510103529 60 67 3.0 8.0 0.00 0.00 0.00 64 1016.2
20260510103028 60 17 2.0 8.0 0.00 0.00 0.00 67 1016.2
20260510102528 59 279 3.0 8.0 0.00 0.00 0.00 66 1016.3
20260510102026 59 301 3.0 10.0 0.00 0.00 0.00 67 1016.3
20260510101524 59 275 3.0 10.0 0.00 0.00 0.00 67 1016.3
20260510101023 58 36 3.0 6.0 0.00 0.00 0.00 67 1016.4
20260510100523 58 295 2.0 8.0 0.00 0.00 0.00 67 1016.5
20260510100023 58 61 3.0 8.0 0.00 0.00 0.00 69 1016.4
20260510095522 58 70 1.0 9.0 0.00 0.00 0.00 70 1016.5
20260510095023 58 69 3.0 9.0 0.00 0.00 0.00 70 1016.5
20260510094522 57 9 3.0 15.0 0.00 0.00 0.00 71 1016.5
20260510094020 57 58 3.0 15.0 0.00 0.00 0.00 72 1016.5
20260510093522 58 304 3.0 8.0 0.00 0.00 0.00 70 1016.4
20260510093020 58 57 3.0 9.0 0.00 0.00 0.00 69 1016.5
20260510092520 58 293 2.0 8.0 0.00 0.00 0.00 68 1016.5
20260510092018 58 44 2.0 12.0 0.00 0.00 0.00 70 1016.5
20260510091518 58 344 1.0 12.0 0.00 0.00 0.00 70 1016.6
20260510091017 58 282 3.0 9.0 0.00 0.00 0.00 70 1016.6
20260510090517 58 38 2.0 9.0 0.00 0.00 0.00 70 1016.6
20260510090018 58 306 3.0 10.0 0.00 0.00 0.00 70 1016.6
20260510085516 58 269 2.0 11.0 0.00 0.00 0.00 70 1016.6
20260510085014 58 22 3.0 11.0 0.00 0.00 0.00 72 1016.7
20260510084617 58 21 4.0 8.0 0.00 0.00 0.00 71 1016.8
20260510084013 57 296 2.0 8.0 0.00 0.00 0.00 73 1016.8
20260510083517 57 319 3.0 8.0 0.00 0.00 0.00 73 1016.8
20260510083013 57 281 1.0 6.0 0.00 0.00 0.00 73 1016.8
20260510082512 58 293 1.0 7.0 0.00 0.00 0.00 73 1016.8
20260510082012 58 343 1.0 8.0 0.00 0.00 0.00 73 1016.8
20260510081532 58 310 2.0 6.0 0.00 0.00 0.00 73 1016.9
20260510081010 57 46 1.0 12.0 0.00 0.00 0.00 73 1016.9
20260510080509 57 58 3.0 12.0 0.00 0.00 0.00 72 1016.9
20260510080012 57 304 3.0 6.0 0.00 0.00 0.00 71 1016.8
20260510075508 57 291 2.0 6.0 0.00 0.00 0.00 72 1016.9
20260510075008 57 296 2.0 13.0 0.00 0.00 0.00 73 1016.9
20260510074508 57 278 3.0 13.0 0.00 0.00 0.00 72 1016.8
20260510074012 57 360 2.0 7.0 0.00 0.00 0.00 72 1016.8
20260510073511 57 24 2.0 8.0 0.00 0.00 0.00 72 1016.7
20260510073006 57 347 2.0 6.0 0.00 0.00 0.00 72 1016.8
20260510072508 57 309 2.0 6.0 0.00 0.00 0.00 73 1016.8
20260510072004 56 52 1.0 10.0 0.00 0.00 0.00 73 1016.8
20260510071502 56 78 2.0 10.0 0.00 0.00 0.00 71 1016.8
20260510071001 55 59 2.0 9.0 0.00 0.00 0.00 71 1016.8
20260510070600 55 296 3.0 9.0 0.00 0.00 0.00 72 1016.9
20260510070059 55 34 3.0 8.0 0.00 0.00 0.00 72 1017.0
20260510065600 55 63 2.0 8.0 0.00 0.00 0.00 73 1017.0
20260510065058 55 297 3.0 9.0 0.00 0.00 0.00 73 1016.9
20260510064602 54 317 1.0 9.0 0.00 0.00 0.00 75 1016.9
20260510064057 54 348 1.0 8.0 0.00 0.00 0.00 76 1017.0
20260510063557 54 294 1.0 9.0 0.00 0.00 0.00 76 1017.0
20260510063057 54 63 3.0 9.0 0.00 0.00 0.00 76 1017.0
20260510062556 54 28 2.0 6.0 0.00 0.00 0.00 78 1017.1
20260510062056 53 334 1.0 5.0 0.00 0.00 0.00 78 1017.0
20260510061556 53 25 2.0 5.0 0.00 0.00 0.00 79 1016.9
20260510061055 53 312 1.0 8.0 0.00 0.00 0.00 80 1016.9
20260510060556 53 290 0.0 8.0 0.00 0.00 0.00 80 1016.9
20260510060056 53 337 0.0 5.0 0.00 0.00 0.00 80 1016.9
20260510055555 52 271 1.0 5.0 0.00 0.00 0.00 81 1017.0
20260510055053 52 46 2.0 5.0 0.00 0.00 0.00 81 1017.0
20260510054553 52 271 0.0 4.0 0.00 0.00 0.00 82 1017.1
20260510054054 52 308 1.0 5.0 0.00 0.00 0.00 82 1017.1
20260510053552 51 289 1.0 5.0 0.00 0.00 0.00 82 1017.2
20260510053106 51 312 1.0 4.0 0.00 0.00 0.00 82 1017.1
20260510052552 51 308 1.0 4.0 0.00 0.00 0.00 82 1017.0
20260510052052 51 275 1.0 4.0 0.00 0.00 0.00 83 1017.0
20260510051602 51 305 1.0 4.0 0.00 0.00 0.00 83 1017.0
20260510051049 51 10 1.0 4.0 0.00 0.00 0.00 83 1017.0
20260510050549 51 317 0.0 3.0 0.00 0.00 0.00 83 1017.0
20260510050059 51 300 1.0 3.0 0.00 0.00 0.00 83 1017.0
20260510045549 51 306 0.0 3.0 0.00 0.00 0.00 83 1016.8
20260510045054 51 267 1.0 3.0 0.00 0.00 0.00 83 1016.8
20260510044602 51 330 0.0 5.0 0.00 0.00 0.00 84 1016.8
20260510044048 50 288 1.0 3.0 0.00 0.00 0.00 84 1016.7
20260510043548 50 311 1.0 3.0 0.00 0.00 0.00 84 1016.6
20260510043054 50 303 0.0 4.0 0.00 0.00 0.00 84 1016.6
20260510042548 50 305 1.0 4.0 0.00 0.00 0.00 84 1016.6
20260510042049 50 350 0.0 4.0 0.00 0.00 0.00 84 1016.6
20260510041545 50 328 0.0 4.0 0.00 0.00 0.00 84 1016.7
20260510041044 50 297 1.0 3.0 0.00 0.00 0.00 84 1016.7
20260510040543 50 36 0.0 4.0 0.00 0.00 0.00 84 1016.7
20260510040044 50 317 1.0 4.0 0.00 0.00 0.00 84 1016.7
20260510035541 50 313 1.0 2.0 0.00 0.00 0.00 84 1016.7
20260510035041 50 341 0.0 3.0 0.00 0.00 0.00 84 1016.7
20260510034542 50 311 1.0 3.0 0.00 0.00 0.00 85 1016.8
20260510034040 50 318 0.0 3.0 0.00 0.00 0.00 85 1016.8
20260510033538 50 304 1.0 3.0 0.00 0.00 0.00 85 1016.8
20260510033055 50 331 0.0 4.0 0.00 0.00 0.00 85 1016.9
20260510032541 50 299 0.0 4.0 0.00 0.00 0.00 85 1017.0
20260510032037 50 317 1.0 4.0 0.00 0.00 0.00 85 1016.9
20260510031539 50 294 1.0 3.0 0.00 0.00 0.00 86 1017.1
20260510031034 50 313 0.0 2.0 0.00 0.00 0.00 86 1017.2
20260510030533 50 315 0.0 4.0 0.00 0.00 0.00 86 1017.2
20260510030042 50 293 0.0 2.0 0.00 0.00 0.00 86 1017.3
20260510025533 50 329 0.0 3.0 0.00 0.00 0.00 86 1017.3
20260510025035 50 38 0.0 3.0 0.00 0.00 0.00 86 1017.2
20260510024646 50 291 0.0 2.0 0.00 0.00 0.00 86 1017.2
20260510024031 50 297 0.0 2.0 0.00 0.00 0.00 86 1017.2
20260510023531 50 306 0.0 2.0 0.00 0.00 0.00 86 1017.2
20260510023031 50 313 0.0 3.0 0.00 0.00 0.00 85 1017.1
20260510022530 51 319 0.0 3.0 0.00 0.00 0.00 85 1017.1
20260510022034 51 308 1.0 3.0 0.00 0.00 0.00 85 1017.1
20260510021532 51 335 0.0 3.0 0.00 0.00 0.00 85 1017.1
20260510021028 51 328 0.0 3.0 0.00 0.00 0.00 85 1017.2
20260510020528 51 315 1.0 3.0 0.00 0.00 0.00 85 1017.2
20260510020029 51 320 0.0 3.0 0.00 0.00 0.00 84 1017.2
20260510015527 51 307 1.0 3.0 0.00 0.00 0.00 84 1017.1
20260510015031 51 333 0.0 3.0 0.00 0.00 0.00 84 1017.1
20260510014534 51 288 0.0 3.0 0.00 0.00 0.00 84 1017.1
20260510014028 51 326 0.0 3.0 0.00 0.00 0.00 84 1017.2
20260510013525 51 348 1.0 3.0 0.00 0.00 0.00 84 1017.3
20260510013025 51 315 0.0 2.0 0.00 0.00 0.00 84 1017.3
20260510012525 51 46 0.0 2.0 0.00 0.00 0.00 84 1017.3
20260510012024 51 313 0.0 3.0 0.00 0.00 0.00 84 1017.3
20260510011524 51 292 0.0 3.0 0.00 0.00 0.00 84 1017.2
20260510011024 51 314 0.0 4.0 0.00 0.00 0.00 83 1017.3
20260510010523 51 321 0.0 4.0 0.00 0.00 0.00 83 1017.3
20260510010026 51 312 0.0 3.0 0.00 0.00 0.00 83 1017.3
20260510005522 51 292 1.0 3.0 0.00 0.00 0.00 83 1017.4
20260510005023 52 302 0.0 3.0 0.00 0.00 0.00 83 1017.4
20260510004521 52 25 0.0 2.0 0.00 0.00 0.00 82 1017.4
20260510004020 52 280 0.0 2.0 0.00 0.00 0.00 82 1017.4
20260510003520 52 324 0.0 2.0 0.00 0.00 0.00 82 1017.5
20260510003019 52 299 0.0 4.0 0.00 0.00 0.00 81 1017.5
20260510002520 52 42 1.0 4.0 0.00 0.00 0.00 81 1017.5
20260510002022 52 298 0.0 3.0 0.00 0.00 0.00 81 1017.4
20260510001518 52 324 1.0 2.0 0.00 0.00 0.00 81 1017.5
20260510001017 53 319 1.0 2.0 0.00 0.00 0.00 81 1017.4
20260510000516 53 327 0.0 2.0 0.00 0.00 0.00 80 1017.5
20260510000018 53 325 0.0 3.0 0.00 0.00 0.00 80 1017.5
20260509235514 53 296 1.0 3.0 0.00 0.00 0.00 80 1017.6
20260509235015 53 5 0.0 3.0 0.00 0.00 0.00 80 1017.7
20260509234520 53 285 1.0 3.0 0.00 0.00 0.00 80 1017.7
20260509234016 53 330 0.0 3.0 0.00 0.00 0.00 79 1017.7
20260509233513 53 342 0.0 4.0 0.00 0.00 0.00 79 1017.7
20260509233012 53 328 1.0 4.0 0.00 0.00 0.00 79 1017.7
20260509232511 53 306 0.0 2.0 0.00 0.00 0.00 78 1017.8
20260509232011 54 336 0.0 2.0 0.00 0.00 0.00 78 1017.8
20260509231513 54 315 0.0 3.0 0.00 0.00 0.00 78 1017.8
20260509231009 54 305 0.0 3.0 0.00 0.00 0.00 78 1017.8
20260509230509 54 317 0.0 3.0 0.00 0.00 0.00 78 1017.8
20260509230017 54 300 1.0 3.0 0.00 0.00 0.00 77 1017.7
20260509225509 54 343 0.0 3.0 0.00 0.00 0.00 77 1017.7
20260509225009 54 294 0.0 3.0 0.00 0.00 0.00 77 1017.8
20260509224507 54 350 0.0 3.0 0.00 0.00 0.00 77 1017.7
20260509224006 54 323 1.0 3.0 0.00 0.00 0.00 76 1017.8
20260509223506 54 339 1.0 4.0 0.00 0.00 0.00 76 1017.8
20260509223008 54 298 0.0 4.0 0.00 0.00 0.00 76 1017.8
20260509222505 55 5 1.0 4.0 0.00 0.00 0.00 76 1017.8
20260509222004 55 25 1.0 5.0 0.00 0.00 0.00 76 1017.9
20260509221505 55 9 1.0 6.0 0.00 0.00 0.00 75 1017.8
20260509221004 55 17 2.0 6.0 0.00 0.00 0.00 75 1017.8
20260509220503 55 15 0.0 4.0 0.00 0.00 0.00 75 1017.8
20260509220002 55 49 1.0 4.0 0.00 0.00 0.00 75 1017.8
20260509215502 55 65 1.0 6.0 0.00 0.00 0.00 75 1017.8
20260509215001 55 340 1.0 4.0 0.00 0.00 0.00 75 1017.9
20260509214502 55 34 1.0 3.0 0.00 0.00 0.00 75 1017.8
20260509214101 55 292 1.0 3.0 0.00 0.00 0.00 75 1017.8
20260509213601 55 5 0.0 4.0 0.00 0.00 0.00 75 1018.0
20260509213002 56 33 1.0 4.0 0.00 0.00 0.00 75 1018.0
20260509212600 56 350 1.0 4.0 0.00 0.00 0.00 75 1018.0
20260509212100 56 5 1.0 4.0 0.00 0.00 0.00 74 1018.0
20260509211606 56 304 1.0 3.0 0.00 0.00 0.00 74 1018.1
20260509211059 56 350 1.0 4.0 0.00 0.00 0.00 74 1018.0
20260509210659 56 331 1.0 5.0 0.00 0.00 0.00 74 1018.0
20260509205559 56 265 0.0 5.0 0.00 0.00 0.00 73 1018.0
20260509205058 57 360 1.0 5.0 0.00 0.00 0.00 73 1017.8
20260509204558 57 281 1.0 5.0 0.00 0.00 0.00 73 1017.8
20260509204058 57 62 1.0 5.0 0.00 0.00 0.00 73 1017.8
20260509203557 57 54 1.0 4.0 0.00 0.00 0.00 72 1017.9
20260509203111 57 355 1.0 4.0 0.00 0.00 0.00 72 1018.0
20260509202558 57 24 1.0 4.0 0.00 0.00 0.00 72 1018.1
20260509202100 57 300 1.0 10.0 0.00 0.00 0.00 71 1018.0
20260509201604 57 84 1.0 10.0 0.00 0.00 0.00 70 1017.9
20260509201058 58 28 1.0 5.0 0.00 0.00 0.00 70 1017.9
20260509200556 58 50 1.0 5.0 0.00 0.00 0.00 68 1017.9
20260509200108 58 11 1.0 4.0 0.00 0.00 0.00 67 1017.9
20260509195557 58 18 0.0 3.0 0.00 0.00 0.00 66 1017.9
20260509195056 58 322 0.0 4.0 0.00 0.00 0.00 65 1017.9
20260509194556 59 309 0.0 3.0 0.00 0.00 0.00 64 1017.8
20260509194056 59 299 1.0 6.0 0.00 0.00 0.00 64 1017.8
20260509193556 59 37 2.0 6.0 0.00 0.00 0.00 63 1017.7
20260509193113 59 296 0.0 3.0 0.00 0.00 0.00 63 1017.7
20260509192555 59 13 0.0 5.0 0.00 0.00 0.00 63 1017.7
20260509192055 59 325 1.0 5.0 0.00 0.00 0.00 62 1017.6
20260509191555 60 17 1.0 3.0 0.00 0.00 0.00 61 1017.5
20260509191054 60 318 0.0 3.0 0.00 0.00 0.00 60 1017.5
20260509190554 60 304 1.0 3.0 0.00 0.00 0.00 59 1017.5
20260509190056 60 46 0.0 3.0 0.00 0.00 0.00 57 1017.4
20260509185554 60 309 1.0 5.0 0.00 0.00 0.00 56 1017.3
20260509185054 61 317 1.0 3.0 0.00 0.00 0.00 55 1017.4
20260509184607 61 306 0.0 7.0 0.00 0.00 0.00 54 1017.4
20260509184054 61 323 1.0 7.0 0.00 0.00 0.00 54 1017.4
20260509183653 61 304 1.0 5.0 0.00 0.00 0.00 53 1017.3
20260509183053 61 47 1.0 4.0 0.00 0.00 0.00 53 1017.3
20260509182552 61 272 1.0 4.0 0.00 0.00 0.00 53 1017.3
20260509182052 62 63 1.0 4.0 0.00 0.00 0.00 53 1017.2
20260509181553 62 20 0.0 3.0 0.00 0.00 0.00 54 1017.2
20260509181051 62 290 0.0 3.0 0.00 0.00 0.00 53 1017.3
20260509180554 62 67 1.0 4.0 0.00 0.00 0.00 53 1017.4
20260509180050 62 51 1.0 4.0 0.00 0.00 0.00 52 1017.3
20260509175550 62 56 1.0 3.0 0.00 0.00 0.00 51 1017.2
20260509175050 63 319 1.0 5.0 0.00 0.00 0.00 51 1017.2
20260509174552 63 314 1.0 5.0 0.00 0.00 0.00 51 1017.4
20260509174050 63 346 0.0 4.0 0.00 0.00 0.00 51 1017.4
20260509173650 63 344 1.0 4.0 0.00 0.00 0.00 51 1017.4
20260509173104 63 306 1.0 4.0 0.00 0.00 0.00 52 1017.5
20260509172550 63 355 0.0 5.0 0.00 0.00 0.00 51 1017.5
20260509172050 63 292 1.0 5.0 0.00 0.00 0.00 51 1017.5
20260509171612 63 53 1.0 4.0 0.00 0.00 0.00 51 1017.5
20260509171048 63 321 0.0 4.0 0.00 0.00 0.00 50 1017.5
20260509170549 63 42 0.0 4.0 0.00 0.00 0.00 50 1017.4
20260509170048 63 5 1.0 5.0 0.00 0.00 0.00 51 1017.4
20260509165549 63 44 0.0 5.0 0.00 0.00 0.00 51 1017.4
20260509165047 64 360 1.0 6.0 0.00 0.00 0.00 50 1017.4
20260509164547 64 42 1.0 6.0 0.00 0.00 0.00 50 1017.3
20260509164050 64 52 2.0 8.0 0.00 0.00 0.00 50 1017.3
20260509163547 64 350 1.0 8.0 0.00 0.00 0.00 50 1017.3
20260509163053 64 302 1.0 5.0 0.00 0.00 0.00 51 1017.3
20260509162547 64 54 0.0 5.0 0.00 0.00 0.00 49 1017.4
20260509162047 64 65 1.0 6.0 0.00 0.00 0.00 49 1017.4
20260509161550 65 119 2.0 6.0 0.00 0.00 0.00 49 1017.4
20260509161046 65 17 2.0 6.0 0.00 0.00 0.00 49 1017.3
20260509160546 66 255 1.0 4.0 0.00 0.00 0.00 49 1017.2
20260509160048 66 24 1.0 3.0 0.00 0.00 0.00 48 1017.3
20260509155545 66 350 1.0 3.0 0.00 0.00 0.00 48 1017.3
20260509155045 65 304 0.0 6.0 0.00 0.00 0.00 49 1017.3
20260509154549 65 80 1.0 6.0 0.00 0.00 0.00 48 1017.3
20260509154043 65 71 1.0 4.0 0.00 0.00 0.00 48 1017.2
20260509153544 66 103 1.0 7.0 0.00 0.00 0.00 46 1017.4
20260509153043 67 340 2.0 7.0 0.00 0.00 0.00 46 1017.4
20260509152548 67 71 0.0 3.0 0.00 0.00 0.00 45 1017.4
20260509152043 66 306 0.0 4.0 0.00 0.00 0.00 45 1017.5